This demonstration page uses our WeatherBlox Daily Observations layout. Learn more.

40.92945, -100.16068

Hourly Observations for April 8, 2018

Temp ( °F °C ) Dew Point ( °F °C ) Humidity (%) Winds ( mph kmh ) Pressure ( in mb ) Visibility ( mi km ) Precip ( " mm )
12:15 am 00:15 Cloudy 33 0.7 15 -9.6 46 46 SSE 18 30 29.97 1015 10 16.0934 0 0
12:35 am 00:35 Cloudy 33 0.8 15 -9.6 46 46 SSE 20 31 29.94 1014 10 16.0934 0 0
12:55 am 00:55 Cloudy 34 1 15 -9.5 46 46 SSE 18 30 29.91 1013 10 16.0934 0 0
1:15 am 01:15 Cloudy 34 1.1 15 -9.5 45 45 SSE 21 33 29.91 1013 10 16.0934 0 0
1:35 am 01:35 Cloudy 34 1 16 -9 48 48 SSE 20 31 29.88 1012 10 16.0934 0 0
1:55 am 01:55 Cloudy 34 1.2 16 -9 47 47 S 22 35 29.91 1013 10 16.0934 0 0
2:15 am 02:15 Cloudy 34 1.1 17 -8.5 49 49 SSE 16 26 29.91 1013 10 16.0934 0 0
2:35 am 02:35 Cloudy 34 1.2 17 -8.2 50 50 SSE 18 30 29.88 1012 10 16.0934 0 0
2:55 am 02:55 Cloudy 34 1 17 -8.1 51 51 SSE 20 31 29.85 1011 10 16.0934 0 0
3:15 am 03:15 Cloudy 34 1 17 -8.2 51 51 SSE 23 37 29.85 1011 10 16.0934 0 0
3:35 am 03:35 Mostly Cloudy 34 0.9 17 -8.1 51 51 SSE 23 37 29.83 1010 10 16.0934 0 0
3:55 am 03:55 Clear 33 0.8 17 -8.3 51 51 SSE 24 39 29.83 1010 10 16.0934 0 0
4:15 am 04:15 Clear 33 0.7 17 -8.3 51 51 SSE 18 30 29.83 1010 10 16.0934 0 0
4:35 am 04:35 Partly Cloudy 33 0.7 17 -8.2 52 52 SSE 20 31 29.8 1009 10 16.0934 0 0
4:55 am 04:55 Partly Cloudy 33 0.5 17 -8.2 53 53 SSE 18 30 29.8 1009 10 16.0934 0 0
5:15 am 05:15 Clear 33 0.4 18 -8 54 54 SSE 21 33 29.8 1009 10 16.0934 0 0
5:35 am 05:35 Clear 33 0.6 18 -8 53 53 SSE 22 35 29.8 1009 10 16.0934 0 0
5:55 am 05:55 Clear 33 0.7 18 -8 53 53 SSE 18 30 29.74 1007 10 16.0934 0 0
6:15 am 06:15 Clear 33 0.8 18 -7.9 53 53 S 21 33 29.74 1007 10 16.0934 0 0
6:35 am 06:35 Clear 34 1 18 -7.7 53 53 S 21 33 29.74 1007 10 16.0934 0 0
6:55 am 06:55 Clear 34 1.1 18 -7.6 53 53 S 21 33 29.71 1006 10 16.0934 0 0
7:15 am 07:15 Sunny 34 1.1 19 -7.5 53 53 SSE 21 33 29.71 1006 10 16.0934 0 0
7:35 am 07:35 Sunny 34 1.2 19 -7.3 54 54 S 24 39 29.71 1006 10 16.0934 0 0
7:55 am 07:55 Sunny 35 1.5 19 -7 54 54 S 23 37 29.71 1006 10 16.0934 0 0
8:15 am 08:15 Sunny 35 1.8 20 -6.7 54 54 S 23 37 29.71 1006 10 16.0934 0 0
8:35 am 08:35 Sunny 36 2 21 -6.2 55 55 S 24 39 29.71 1006 10 16.0934 0 0
8:55 am 08:55 Mostly Cloudy 36 2.1 22 -5.7 57 57 S 18 30 29.71 1006 10 16.0934 0 0
9:15 am 09:15 Cloudy 36 2.4 22 -5.3 57 57 S 20 31 29.71 1006 10 16.0934 0 0
9:35 am 09:35 Partly Cloudy 37 2.7 23 -5 57 57 S 17 28 29.71 1006 10 16.0934 0 0
9:55 am 09:55 Sunny 38 3.3 24 -4.6 57 57 S 21 33 29.68 1005 10 16.0934 0 0
10:15 am 10:15 Partly Cloudy 38 3.6 24 -4.4 56 56 SSW 16 26 29.68 1005 10 16.0934 0 0
10:35 am 10:35 Partly Cloudy 40 4.3 25 -3.9 56 56 S 14 22 29.68 1005 10 16.0934 0 0
10:55 am 10:55 Sunny 41 4.8 26 -3.6 55 55 SSW 10 17 29.71 1006 10 16.0934 0 0
11:15 am 11:15 Sunny 42 5.3 27 -3 55 55 SSW 10 17 29.68 1005 10 16.0934 0 0
11:35 am 11:35 Sunny 43 5.9 27 -2.7 54 54 SW 8 13 29.68 1005 10 16.0934 0 0
11:55 am 11:55 Sunny 45 7.1 28 -2 53 53 W 6 9 29.65 1004 10 16.0934 0 0
12:15 pm 12:15 Sunny 47 8.5 29 -1.5 50 50 W 8 13 29.68 1005 10 16.0934 0 0
12:35 pm 12:35 Sunny 49 9.7 30 -1.1 47 47 NNW 6 9 29.62 1003 10 16.0934 0 0
12:55 pm 12:55 Sunny 51 10.8 31 -0.3 47 47 NNW 13 20 29.65 1004 10 16.0934 0 0
1:15 pm 13:15 Sunny 53 11.6 31 -0.4 44 44 NNW 9 15 29.65 1004 10 16.0934 0 0
1:35 pm 13:35 Sunny 54 12.2 32 0 43 43 NW 10 17 29.62 1003 10 16.0934 0 0
1:55 pm 13:55 Sunny 56 13.4 32 0.1 40 40 W 12 19 29.59 1002 10 16.0934 0 0
2:15 pm 14:15 Sunny 57 14.1 33 0.3 39 39 WSW 6 9 29.59 1002 10 16.0934 0 0
2:35 pm 14:35 Sunny 60 15.4 33 0.6 37 37 NNW 6 9 29.59 1002 10 16.0934 0 0
2:55 pm 14:55 Partly Cloudy 62 16.6 32 0.2 33 33 N 15 24 29.56 1001 10 16.0934 0 0
3:15 pm 15:15 Partly Cloudy 65 18.6 30 -1.2 26 26 NNW 18 30 29.56 1001 10 16.0934 0 0
3:35 pm 15:35 Partly Cloudy 66 19 29 -1.7 25 25 NNW 24 39 29.56 1001 10 16.0934 0 0
3:55 pm 15:55 Sunny 66 18.7 29 -1.5 26 26 NW 24 39 29.56 1001 10 16.0934 0 0
4:15 pm 16:15 Partly Cloudy 66 18.8 29 -1.7 25 25 NNW 23 37 29.59 1002 10 16.0934 0 0
4:35 pm 16:35 Partly Cloudy 64 17.8 29 -1.9 26 26 NNW 25 41 29.59 1002 10 16.0934 0 0
4:55 pm 16:55 Sunny 65 18.1 27 -2.7 24 24 NNW 28 44 29.59 1002 10 16.0934 0 0
5:15 pm 17:15 Sunny 64 17.9 27 -2.6 25 25 NNW 21 33 29.62 1003 10 16.0934 0 0
5:35 pm 17:35 Sunny 64 17.5 28 -2.1 26 26 N 23 37 29.62 1003 10 16.0934 0 0
5:55 pm 17:55 Sunny 63 17.2 28 -2.4 26 26 NNW 24 39 29.62 1003 10 16.0934 0 0
6:15 pm 18:15 Sunny 62 16.7 29 -1.7 29 29 N 24 39 29.65 1004 10 16.0934 0 0
6:35 pm 18:35 Sunny 60 15.6 29 -1.4 31 31 N 24 39 29.65 1004 10 16.0934 0 0
6:55 pm 18:55 Sunny 58 14.5 30 -1.1 34 34 N 23 37 29.68 1005 10 16.0934 0 0
7:15 pm 19:15 Sunny 56 13.3 28 -2 35 35 N 21 33 29.71 1006 10 16.0934 0 0
7:35 pm 19:35 Sunny 54 12.1 28 -2.2 37 37 N 17 28 29.74 1007 10 16.0934 0 0
7:55 pm 19:55 Sunny 51 10.7 28 -2.3 40 40 N 17 28 29.77 1008 10 16.0934 0 0
8:15 pm 20:15 Clear 49 9.2 28 -2.3 45 45 N 10 17 29.77 1008 10 16.0934 0 0
8:35 pm 20:35 Clear 46 7.9 28 -2.5 48 48 N 14 22 29.8 1009 10 16.0934 0 0
8:55 pm 20:55 Clear 44 6.5 28 -2.5 53 53 NNE 10 17 29.85 1011 10 16.0934 0 0
9:15 pm 21:15 Clear 42 5.6 28 -2.5 56 56 NNE 12 19 29.85 1011 10 16.0934 0 0
9:35 pm 21:35 Clear 41 4.9 27 -2.6 59 59 N 13 20 29.88 1012 10 16.0934 0 0
9:55 pm 21:55 Clear 39 4.1 27 -2.7 62 62 NNE 9 15 29.91 1013 10 16.0934 0 0
10:15 pm 22:15 Clear 38 3.6 27 -2.7 64 64 N 9 15 29.94 1014 10 16.0934 0 0
10:35 pm 22:35 Clear 37 2.7 27 -2.6 68 68 N 7 11 30 1016 10 16.0934 0 0
10:55 pm 22:55 Partly Cloudy 37 3 28 -2.5 67 67 N 9 15 29.97 1015 10 16.0934 0 0
11:15 pm 23:15 Mostly Cloudy 37 3 28 -2.5 67 67 N 8 13 29.97 1015 10 16.0934 0 0
11:35 pm 23:35 Cloudy 37 2.7 27 -2.6 68 68 N 6 9 30 1016 10 16.0934 0 0
11:55 pm 23:55 Cloudy 37 2.6 26 -3.1 66 66 N 12 19 30 1016 10 16.0934 0 0

Powered by AerisWeather